Location: Marcé
(47.5801°N, 0.3280°W)
Time: 23:13:26
(UTC+01:00)

Transit 2A - Pass Details

Date: 09 December 2021
Orbit: 591 x 967 km, 66.7° (Epoch: 23 January)

Event Time Altitude Azimuth Distance (km) Brightness Sun altitude
Rises 03:41:31 0° 297° (WNW) 3,550 - -48.5°
Reaches altitude 10° 03:45:32 10° 323° (NW) 2,664 - -47.8°
Maximum altitude 03:48:34 14° 352° (N) 2,435 - -47.4°
Drops below altitude 10° 03:51:38 10° 21° (NNE) 2,711 - -46.9°
Exits shadow 03:52:13 - 26° (NNE) 2,813 9.2 -46.8°
Sets 03:55:49 0° 47° (NE) 3,662 10.1 -46.2°
